Starlink 5291

operational
NORAD ID: 55273 Int'l Des: 2023-010 Owner: SPXS Country: US Constellation: starlink
LEOCIRCULAR

Starlink 5291について

説明を読み込み中...

リアルタイム位置

3D地球を読み込み中...

次回通過

高度履歴

Altitude vs Time

uPlot chart will show altitude changes over time

軌道要素

1 55273U 23010E 25351.86958697 -.00000722 00000-0 -52743-4 0 9990
2 55273 70.0011 250.6124 0002155 253.5314 106.5608 14.98329414160535
Epoch: Dec 17, 2025 • Age: 11 hours

現在のステータス

高度 584.1 km
速度 7.57 km/s
衛星直下点 -34.85°S, 28.87°E
打ち上げ日 Jan 19, 2023
運用期間 2.9 years
タイプ internet

技術仕様

分類 Payload
質量 305.00 kg
乾燥質量 290.00 kg
総質量 305.00 kg
長さ 0.20 m
直径 2.80 m
スパン 9.00 m
形状 Box + pan
製造者 SPXS
バスタイプ Starlink
フェーズステータス In Orbit
所有者/国 SPXS/US

大規模コンステレーション

Loading constellations...